Regional Weather Roundup
Issued by NWS Cleveland, OH

Home | Current Version | Previous Version | Graphics & Text | Print | Product List | Glossary On
Versions: 1 2 3 4 5 6 7 8 9 10 11 12 13 14 15 16 17 18 19 20 21 22 23 24 25 26 27 28 29 30 31 32 33 34 35 36 37 38 39 40 41 42 43 44 45 46 47 48 49 50
000
ASUS41 KCLE 020110
RWRCLE
OHIO REGIONAL WEATHER ROUNDUP
NATIONAL WEATHER SERVICE WILMINGTON, OH
900 PM EDT SUN MAY 01 2016

NOTE: "FAIR" INDICATES FEW OR NO CLOUDS BELOW 12,000 FEET WITH NO
SIGNIFICANT WEATHER AND/OR OBSTRUCTIONS TO VISIBILITY.

OHZ001>008-015>018-024>027-034-035-043-044-020200-
   NORTHWEST OHIO

CITY           SKY/WX    TMP DP  RH WIND       PRES   REMARKS
DEFIANCE       CLOUDY    54  50  86 NE9       29.95F
FINDLAY        CLOUDY    54  48  80 NE10      29.94F
TOLEDO EXPRESS CLOUDY    51  49  92 NE9       29.97F FOG
TOLEDO EXEC    CLOUDY    52  48  86 NE12      29.97F FOG
LIMA           CLOUDY    54  53  97 NE14      29.92F FOG
$$

OHZ009>014-019>023-028>033-038-089-020200-
   NORTHEAST OHIO

CITY           SKY/WX    TMP DP  RH WIND       PRES   REMARKS
CLE-HOPKINS    CLOUDY    53  48  83 NE9       30.00S
CLE-LAKEFRONT  CLOUDY    51  49  92 NE8       29.98S
CUY CO. ARPT   CLOUDY    52  50  93 NE9       29.99S
LORAIN-ELYRIA  CLOUDY    51  47  86 NE7       29.98S
ASHTABULA      CLOUDY    48  47  96 NE6       30.00R
AKRON-CANTON   CLOUDY    56  52  86 N8        29.95S
WOOSTER        CLOUDY    54  51  90 N10       29.95F
MANSFIELD      CLOUDY    54  52  93 N9        29.95S
YOUNGSTOWN     CLOUDY    55  50  83 N7        29.97R
$$

OHZ042-051>053-060>062-070>072-077>081-020200-
  SOUTHWEST OHIO

CITY           SKY/WX    TMP DP  RH WIND       PRES   REMARKS
CINC-COVINGTON MOCLDY    64  61  90 SW5       29.89S
CINC-LUNKEN    CLOUDY    64  64 100 SE6       29.89R
HAMILTON       LGT RAIN  63  60  90 N3        29.90R
DAYTON         FAIR      66  56  70 E7        29.88S
WRIGHT-PAT AFB NOT AVBL
DAYTON GENERAL TSTM      68  57  68 SW12      29.90R
WILMINGTON     FAIR      64  60  87 SW3       29.91R
$$

OHZ036-037-039>041-045>050-054>059-063>069-073>076-082>088-020200-
  CENTRAL AND SOUTHEAST OHIO

CITY           SKY/WX    TMP DP  RH WIND       PRES   REMARKS
COLUMBUS       MOCLDY    67  56  67 NE3       29.89R
OSU AIRPORT    FAIR      64  60  87 N6        29.90R
BOLTON FIELD   MOCLDY    68  60  75 NE3       29.90R
RICKENBACK AFB CLOUDY    67  58  72 E3        29.89R
NEWARK         FAIR      65  57  75 E3        29.90R
MARION         CLOUDY    54  52  93 NE15      29.94S
LANCASTER      FAIR      67  55  65 CALM      29.90R
ZANESVILLE     CLOUDY    67  55  65 SE6       29.92R
NEW PHILLY     FAIR      61  57  87 CALM      29.92S
$$



USA.gov is the U.S. government's official web portal to all federal, state and local government web resources and services.